Miscellaneous Local Product
Issued by NWS Hastings, NE

Home | Current Version | Previous Version | Graphics & Text | Print | Product List | Glossary On
Versions: 1 2 3 4 5 6 7 8 9 10 11 12 13 14 15 16 17 18 19 20 21 22 23 24 25 26 27 28 29 30 31 32 33 34 35 36 37 38 39 40 41 42 43 44 45 46 47 48 49 50
530
AXUS43 KGID 251602
MISGRI

GID CWA HOURLY WEATHER ROUNDUP
NATIONAL WEATHER SERVICE HASTINGS NE
1100 AM CDT MON JUL 25 2016

NOTE: "FAIR" INDICATES FEW OR NO CLOUDS BELOW 12,000 FEET WITH NO
SIGNIFICANT WEATHER AND/OR OBSTRUCTIONS TO VISIBILITY.

...SOUTH CENTRAL NEBRASKA...

CITY           SKY/WX    TMP DP  RH WIND       PRES   REMARKS
GRAND ISLAND   CLOUDY    77  62  59 SE9       30.17F
HASTINGS       MOSUNNY   77  64  64 SE12      30.18S
KEARNEY        SUNNY     77  64  65 E12       30.18S
ORD            SUNNY     77  55  46 SE13      30.17F
YORK           SUNNY     75  66  73 S7        30.17F
AURORA         MOSUNNY   77  66  68 S7        30.17S
LEXINGTON      SUNNY     77  64  63 SE14      30.18S
HOLDREGE       CLOUDY    76  65  69 E13       30.17S
HEBRON         CLOUDY    76  64  67 E8        30.14F

...NEBRASKA PANHANDLE...

CITY           SKY/WX    TMP DP  RH WIND       PRES   REMARKS
CHADRON        SUNNY     81  53  37 S17       30.12F
ALLIANCE       SUNNY     76  57  51 S15G23    30.18F
SCOTTSBLUFF    SUNNY     78  55  44 S13G22    30.16F
SIDNEY         SUNNY     76  56  49 SE22G29   30.21F

...WESTERN AND NORTH CENTRAL NEBRASKA...

CITY           SKY/WX    TMP DP  RH WIND       PRES   REMARKS
VALENTINE      SUNNY     82  55  39 S20       30.15F
AINSWORTH      SUNNY     80  47  31 S17G23    30.17F
ONEILL         SUNNY     82  53  36 S15       30.17S
BROKEN BOW     SUNNY     76  63  64 SE10      30.18F
IMPERIAL       SUNNY     76  60  57 SE12      30.19S
NORTH PLATTE   SUNNY     76  65  68 SE9       30.19S
MCCOOK         SUNNY     80  62  54 SE14      30.18S

...EASTERN NEBRASKA...

CITY           SKY/WX    TMP DP  RH WIND       PRES   REMARKS
NORFOLK        SUNNY     79  62  56 S12       30.16S
SO SIOUX CITY  SUNNY     82  62  50 VRB3      30.14R
TEKAMAH        CLOUDY    80  64  58 SE5       30.14R
COLUMBUS       MOSUNNY   75  61  60 S6        30.17S
ALBION         SUNNY     75  60  60 S10       30.18S
OMAHA EPPLEY   MOSUNNY   80  65  59 S7        30.13S
OFFUTT AFB     MOSUNNY   78  66  65 SE7       30.13F
MILLARD        SUNNY     79  66  63 S5        30.14S
LINCOLN        PTSUNNY   78  64  61 SE5       30.16S
NEBRASKA CITY  CLOUDY    76  65  68 E3        30.15R
BEATRICE       MOSUNNY   78  63  59 SE6       30.14F
FALLS CITY     CLOUDY    77  67  71 E8        30.12R

...NORTHERN KANSAS...

CITY           SKY/WX    TMP DP  RH WIND       PRES   REMARKS
GOODLAND       SUNNY     75  62  64 SE3       30.20S
HILL CITY      CLOUDY    72  67  84 SE13      30.17F
NORTON         SUNNY     79  57  47 SE12      30.16
SMITH CENTER   MOSUNNY   72  66  83 E9        30.15R
BELOIT         MOSUNNY   72  70  94 E10       30.11R
HAYS           CLOUDY    72  63  73 CALM      30.15F
RUSSELL        CLOUDY    71  69  93 SE13      30.11F
CONCORDIA      PTSUNNY   71  68  90 E7        30.11F
SALINA         CLOUDY    72  69  90 NE3       30.13R
TOPEKA         CLOUDY    74  69  85 N3        30.12R



USA.gov is the U.S. government's official web portal to all federal, state and local government web resources and services.